Temp
6 6 6 6 6 6 6 6 6 6 6 6 6 6 6 6 6 5 5 4 4 4 4 4 4 4 4 4 4 4 4 4 4 4 4 4 4 4 4 3 3 3 3 3 3 3 3 3 3 3 4 4 4 4 4 5 5 5 5 5 6 6 7 7 7 7 7 7 7 6 6 6 6 6 6 6 6 6 6 7 7 7 6 6 6 6
6 6 6 6 6 6 6 6 6 6 6 6 6 6 6 6 5 5 5 4 4 4 4 3 3 3 3 4 4 4 4 4 4 4 4 4 4 4 4 3 3 3 3 3 3 3 3 3 3 3 3 3 4 4 4 4 5 5 5 5 5 6 6 6 7 7 7 7 7 7 6 6 6 6 6 6 6 6 6 6 6 6 6 6 6 6
6 6 6 6 6 5 5 5 5 5 5 5 5 5 5 5 5 5 5 4 4 4 4 3 3 3 3 3 3 3 3 4 4 4 4 4 4 4 4 3 3 3 3 3 3 3 3 3 3 3 3 3 3 3 4 4 4 4 4 5 5 5 6 6 6 7 7 7 7 6 6 7 7 7 6 6 6 6 6 6 6 6 6 6 6 6
5 5 5 5 5 5 5 5 5 5 5 5 5 5 5 5 5 4 4 4 4 4 4 3 3 3 3 3 3 3 3 3 3 3 3 3 4 4 3 3 3 3 3 3 3 3 3 3 3 3 3 3 3 3 3 4 4 4 4 4 4 5 5 5 6 6 6 6 6 6 6 6 7 7 6 6 6 6 6 6 6 6 6 6 6 6
4 4 4 4 4 4 4 5 5 5 4 4 4 4 4 4 4 4 4 4 4 3 3 3 3 3 3 3 3 3 3 3 3 3 3 3 3 3 3 3 3 3 3 3 3 3 3 3 3 3 3 3 3 3 3 3 3 4 4 4 4 4 5 5 5 6 6 6 6 6 6 6 6 6 6 6 6 6 6 6 6 6 6 6 6 6
4 4 4 4 4 4 4 4 4 4 4 4 4 4 4 4 4 4 3 3 3 3 3 3 3 3 3 3 3 3 3 3 3 3 3 3 3 3 3 3 3 3 3 3 3 3 3 3 3 3 3 3 3 3 3 3 3 3 3 4 4 4 4 4 5 5 5 5 6 6 6 6 6 6 6 6 6 6 6 6 6 6 6 6 7 7
4 4 4 4 3 3 3 3 4 4 4 3 3 3 3 3 3 3 3 3 3 3 3 3 3 3 3 3 3 3 3 3 3 3 3 3 3 2 2 2 2 2 2 2 2 2 2 3 3 3 3 2 2 3 3 3 3 3 3 3 4 4 4 4 4 4 5 5 5 5 5 6 6 6 6 6 6 6 6 6 6 6 6 6 6 6
3 3 3 3 3 3 3 3 3 3 3 3 3 3 3 3 3 3 3 2 2 2 2 2 2 2 3 3 3 3 3 3 3 3 2 2 2 2 2 2 2 2 2 2 2 2 2 2 2 2 2 2 2 2 2 3 3 3 3 3 3 3 4 4 4 4 4 5 5 5 5 5 5 5 5 5 5 6 6 6 6 6 6 6 6 6
3 3 3 3 3 3 3 3 3 3 3 3 3 3 3 3 3 3 3 2 2 2 2 2 2 2 2 2 2 2 2 2 2 2 2 2 2 2 2 2 2 2 2 2 2 2 2 2 2 2 2 2 2 2 2 2 3 3 3 3 3 3 3 4 4 4 4 4 4 4 5 5 5 5 5 5 5 5 5 5 5 5 5 6 6 6
2 2 2 3 3 3 3 3 3 3 3 3 3 2 2 2 3 3 3 3 3 2 2 2 2 2 2 2 2 2 2 2 2 2 2 2 2 1 1 1 1 1 1 1 1 1 1 1 2 2 2 2 2 2 2 2 2 2 3 3 3 3 3 3 4 4 4 4 4 4 4 4 4 4 4 4 5 5 5 5 5 5 5 5 5 5
2 2 2 2 2 3 3 2 3 3 3 3 2 2 2 2 2 2 2 3 3 3 2 2 2 2 2 2 2 2 2 2 2 2 2 1 1 1 1 1 1 1 1 1 1 1 1 1 1 1 1 1 2 2 2 2 2 2 2 3 3 3 3 3 3 4 4 4 4 4 4 4 4 4 4 4 4 4 4 5 5 4 4 5 5 5
2 2 2 2 2 2 2 2 2 2 2 2 2 2 1 2 2 2 2 2 2 3 3 2 2 2 2 2 2 2 2 2 1 1 1 1 1 1 1 1 0 0 0 0 0 0 0 0 0 1 1 1 1 1 1 1 2 2 2 2 3 3 3 3 3 3 4 4 4 4 4 4 4 4 4 4 4 4 4 4 4 4 4 4 4 5
2 2 2 2 2 2 2 2 2 2 2 2 2 1 2 2 2 2 1 2 2 2 2 2 2 2 2 2 2 2 2 2 1 1 1 1 1 0 0 0 0 -0 -0 -0 -0 -0 -0 -0 -0 0 0 0 1 1 1 1 1 1 2 2 2 2 3 3 3 3 3 4 4 4 4 4 4 4 4 4 4 4 4 4 4 4 4 4 4 4
2 2 2 2 2 2 2 2 2 2 2 2 2 2 2 2 2 2 1 1 1 2 2 2 2 2 2 2 2 2 2 1 1 1 1 1 0 0 0 0 -0 -0 -0 -0 -0 -0 -0 -0 -0 -0 -0 0 0 0 1 1 1 1 1 2 2 2 2 2 3 3 3 3 3 4 4 4 4 4 4 4 4 4 4 4 4 4 4 4 4 4
2 2 2 2 2 2 2 2 2 2 2 2 2 2 2 2 2 2 1 1 1 1 1 1 1 1 2 2 2 2 2 1 1 1 1 1 0 0 0 -0 -0 -0 -0 -0 -1 -1 -1 -1 -1 -0 -0 -0 -0 0 0 1 1 1 1 1 1 2 2 2 2 3 3 3 3 3 3 3 3 4 4 4 4 4 4 4 4 4 3 3 4 4
2 2 2 2 2 3 3 3 3 2 2 2 2 2 2 2 2 1 1 1 1 1 1 1 1 1 1 1 1 1 1 1 1 1 0 0 0 0 -0 -0 -0 -0 -1 -1 -1 -1 -1 -1 -1 -1 -1 -0 -0 -0 0 0 0 1 1 1 1 1 1 2 2 2 3 3 3 3 3 3 3 3 3 3 3 3 3 3 3 3 3 3 3 4
2 2 2 2 2 3 3 3 3 3 2 2 2 2 2 2 1 1 1 1 1 1 1 1 1 1 1 1 1 1 1 1 1 0 0 0 0 -0 -0 -0 -1 -1 -1 -1 -1 -1 -1 -1 -1 -1 -1 -1 -1 -0 -0 0 0 0 1 1 1 1 1 1 2 2 2 3 3 3 3 3 3 3 3 3 3 3 3 3 3 3 3 3 3 3
2 2 2 2 2 3 3 3 3 2 2 2 2 2 2 1 1 1 1 1 1 1 1 1 1 1 2 2 2 2 1 1 1 0 0 0 -0 -0 -0 -1 -1 -1 -1 -1 -1 -1 -1 -1 -1 -1 -1 -1 -1 -1 -0 -0 -0 0 0 0 1 1 1 1 1 2 2 2 3 3 3 3 3 3 3 3 3 3 3 3 3 3 3 3 3 3
2 2 2 2 2 2 2 2 2 2 2 2 1 1 1 1 1 1 1 1 1 1 1 1 1 1 2 2 2 2 1 1 1 0 0 -0 -0 -0 -0 -1 -1 -1 -1 -1 -1 -1 -1 -1 -1 -1 -1 -1 -1 -1 -1 -1 -0 -0 -0 -0 0 0 1 1 1 1 1 1 2 2 3 3 3 3 3 3 3 3 3 2 2 2 2 2 3 3
1 2 2 2 2 2 2 2 2 2 2 1 1 1 1 1 1 1 1 1 1 1 1 1 1 1 1 1 1 1 1 1 1 0 -0 -0 -0 -0 -0 -1 -1 -1 -1 -1 -1 -1 -1 -1 -1 -1 -1 -1 -1 -1 -1 -1 -1 -1 -1 -0 -0 -0 0 0 1 1 1 1 1 2 2 3 3 3 3 3 3 3 2 2 2 2 2 2 3 3
2 2 1 1 1 1 1 2 2 2 2 1 1 1 1 1 1 1 0 1 1 1 1 1 1 1 1 1 1 1 1 1 1 0 -0 -0 -0 -0 -0 -0 -1 -1 -1 -1 -1 -1 -1 -1 -1 -1 -1 -1 -1 -1 -1 -1 -1 -1 -1 -1 -1 -1 -0 -0 0 0 1 1 1 1 1 2 2 2 2 2 2 2 2 2 2 2 2 2 2 3
2 2 2 2 1 1 1 1 1 2 1 1 1 1 1 1 1 1 1 1 1 1 1 1 1 1 1 1 1 1 1 1 0 0 -0 -0 -0 -0 -0 -0 -1 -1 -1 -1 -1 -1 -1 -1 -1 -1 -1 -1 -1 -1 -1 -1 -1 -1 -1 -1 -1 -1 -1 -1 -0 -0 0 0 0 1 1 1 2 2 2 2 2 2 2 2 2 2 2 2 2 2
2 2 2 2 2 1 1 1 1 1 1 1 0 0 0 1 1 1 1 0 0 0 0 0 0 0 0 0 0 0 1 1 0 0 -0 -0 -0 -0 -0 -0 -0 -1 -1 -1 -1 -1 -1 -1 -1 -1 -1 -1 -1 -1 -1 -1 -1 -1 -1 -1 -1 -1 -1 -1 -1 -1 -0 -0 0 0 0 1 1 1 2 2 2 2 2 2 2 2 2 2 2 2
1 2 2 2 2 2 1 1 1 1 1 1 0 0 0 0 0 0 0 0 0 0 -0 -0 -0 -0 0 0 0 0 0 0 0 -0 -0 -0 -0 -0 0 0 -0 -1 -1 -1 -1 -1 -1 -1 -1 -1 -1 -1 -1 -1 -1 -1 -1 -1 -1 -1 -1 -2 -2 -1 -1 -1 -1 -0 -0 0 0 0 1 1 1 1 2 2 2 2 2 2 2 2 2 2
1 1 1 1 1 1 1 1 1 1 1 0 0 0 0 0 0 0 0 0 -0 -0 -0 -0 -0 -0 -0 0 0 0 0 0 0 -0 -1 -0 -0 -0 0 0 -0 -0 -1 -1 -1 -1 -1 -1 -1 -1 -1 -1 -1 -1 -1 -1 -1 -1 -1 -1 -1 -2 -2 -2 -2 -1 -1 -1 -1 -0 -0 0 0 0 1 1 1 2 2 2 2 2 2 2 2 2
1 1 1 1 1 1 1 1 1 1 1 1 0 0 -0 -0 -0 -0 -0 -0 -0 -1 -1 -1 -0 0 0 0 0 0 0 0 -0 -0 -1 -1 -0 -0 -0 -0 -0 -0 -0 -1 -1 -1 -1 -1 -1 -1 -1 -2 -2 -2 -2 -1 -1 -1 -1 -1 -1 -2 -2 -2 -2 -1 -1 -1 -1 -1 -0 -0 0 0 0 1 1 1 1 2 2 2 2 2 2 2
2 2 2 2 2 2 2 2 2 2 1 1 1 0 -0 -0 -0 -0 -0 -0 -0 -0 -0 -0 -0 0 1 1 0 0 0 0 -0 -0 -1 -1 -1 -1 -0 -0 -0 -0 -1 -1 -1 -1 -1 -1 -1 -1 -1 -1 -2 -2 -2 -2 -2 -2 -2 -2 -2 -2 -2 -2 -2 -2 -1 -1 -1 -1 -1 -0 -0 0 0 0 1 1 1 1 1 2 2 2 2 2
2 2 2 2 2 2 2 2 2 2 2 2 1 1 0 -0 -0 -0 -0 0 0 -0 -0 -0 0 0 1 1 1 1 1 0 0 -0 -1 -1 -1 -1 -1 -0 -0 -1 -1 -1 -1 -1 -1 -1 -1 -1 -1 -1 -2 -2 -2 -2 -2 -2 -2 -2 -2 -2 -2 -2 -2 -1 -1 -1 -1 -1 -1 -1 -0 -0 -0 0 0 1 1 1 1 1 1 1 2 2
2 2 2 2 2 2 2 2 2 2 2 2 2 2 1 0 -0 -0 0 0 0 0 -0 -0 0 0 0 1 1 1 1 0 0 -0 -1 -1 -1 -1 -1 -1 -1 -1 -1 -1 -1 -1 -1 -1 -1 -1 -1 -1 -1 -1 -2 -2 -2 -2 -2 -2 -2 -2 -2 -2 -2 -1 -1 -1 -1 -1 -1 -1 -1 -0 -0 0 0 0 1 1 1 1 1 1 1 1
2 2 2 2 2 2 2 2 2 2 2 2 2 2 2 1 0 -0 0 0 0 0 0 0 0 0 0 0 0 0 0 0 0 -0 -1 -1 -1 -1 -1 -1 -1 -1 -1 -1 -1 -1 -1 -1 -1 -1 -1 -1 -1 -1 -1 -2 -2 -2 -2 -2 -2 -2 -2 -2 -2 -2 -1 -1 -1 -1 -1 -1 -1 -0 -0 -0 0 0 1 1 1 1 1 1 1 1
2 2 2 2 2 2 2 2 2 2 2 2 2 2 2 1 1 0 -0 -0 -0 -0 0 0 0 0 0 0 0 0 0 1 1 0 -1 -1 -1 -1 -1 -1 -1 -1 -1 -1 -1 -1 -1 -0 -0 -0 -1 -1 -1 -1 -1 -1 -2 -2 -2 -2 -2 -2 -2 -2 -2 -2 -1 -1 -1 -1 -1 -1 -0 -0 -0 -0 0 0 1 1 1 1 1 1 1 1
2 2 2 2 2 2 2 2 2 2 2 2 2 2 2 2 1 1 0 -0 -0 -0 -0 0 0 0 0 0 0 0 1 1 1 1 -0 -1 -1 -1 -1 -1 -1 -1 -1 -1 -1 -1 -1 -0 -0 0 -0 -0 -1 -1 -1 -1 -1 -2 -2 -2 -2 -2 -2 -2 -2 -2 -2 -1 -1 -1 -1 -0 -0 -0 0 0 0 0 0 1 1 1 1 1 1 0
2 2 2 2 2 2 2 2 2 2 2 1 1 1 1 1 1 1 1 0 -0 -0 -0 -0 0 0 0 0 0 0 1 1 1 1 0 -1 -1 -1 -1 -1 -1 -1 -1 -1 -1 -1 -1 -1 -0 -0 -0 -0 -0 -1 -1 -1 -1 -1 -2 -2 -2 -2 -2 -2 -2 -2 -2 -1 -1 -1 -1 -0 -0 0 0 1 1 1 1 1 1 1 1 1 0 0
2 2 2 2 2 2 2 2 2 2 2 1 1 1 1 1 1 1 1 1 0 -0 -0 -0 0 0 0 0 0 0 1 1 1 1 0 -1 -1 -1 -1 -1 -1 -1 -1 -1 -1 -1 -1 -1 -1 -1 -0 -0 -0 -0 -1 -1 -1 -1 -1 -1 -2 -2 -2 -2 -2 -2 -1 -1 -1 -1 -1 -0 -0 0 0 1 1 1 1 1 1 1 1 0 -0 -0
2 2 2 2 2 2 2 2 2 2 2 1 1 1 1 1 1 1 1 1 1 0 -0 -0 -0 0 0 0 0 0 0 0 1 1 0 -1 -1 -1 -1 -1 -1 -1 -1 -1 -1 -1 -1 -1 -1 -1 -1 -0 -0 -0 -0 -1 -1 -1 -1 -1 -1 -1 -1 -1 -1 -1 -1 -1 -1 -1 -1 -1 -0 -0 0 0 1 1 1 1 1 1 1 0 -0 -0
2 2 2 2 2 2 2 2 2 2 2 1 1 1 1 1 1 1 1 1 1 0 0 -0 -0 -0 0 0 0 0 0 0 0 0 0 -0 -1 -1 -1 -1 -0 -1 -1 -1 -1 -1 -1 -1 -1 -1 -1 -1 -0 -0 -0 -0 -1 -1 -1 -1 -1 -1 -1 -1 -1 -1 -1 -1 -1 -1 -1 -1 -1 -0 -0 -0 0 0 0 1 1 0 0 0 0 -0
2 2 2 2 2 2 2 2 2 2 1 1 1 1 1 1 1 0 0 0 0 0 0 -0 -0 -0 -0 -0 0 0 0 0 0 0 -0 -0 -1 -1 -1 -1 -1 -1 -1 -1 -1 -1 -1 -1 -1 -1 -1 -1 -0 -0 -0 -0 -1 -1 -1 -1 -1 -1 -1 -1 -1 -1 -1 -1 -1 -1 -1 -1 -1 -1 -0 -0 -0 0 0 0 0 0 0 0 0 0
2 2 2 2 2 2 2 2 2 2 1 1 1 1 1 1 1 0 0 0 0 0 0 -0 -0 -0 -0 -0 -0 -0 -0 -0 -0 -0 -0 -0 -1 -1 -1 -1 -1 -1 -1 -1 -1 -1 -1 -1 -1 -1 -1 -1 -0 -0 -0 -0 -0 -1 -1 -1 -1 -1 -1 -1 -1 -1 -1 -1 -1 -1 -1 -1 -1 -1 -1 -0 -0 -0 -0 -0 0 0 0 0 0 0
2 2 2 3 2 2 2 2 2 2 1 1 1 1 1 1 1 0 0 0 0 -0 -0 -0 -0 -0 -0 -1 -1 -1 -1 -1 -1 -1 -1 -1 -1 -1 -1 -1 -1 -1 -1 -1 -1 -1 -1 -1 -1 -1 -1 -1 -0 -0 -0 -0 -0 -1 -1 -1 -1 -1 -1 -1 -1 -1 -1 -1 -1 -1 -1 -1 -1 -1 -1 -1 -0 -0 -0 -0 -0 0 0 0 0 0
2 2 2 2 2 2 2 2 2 2 1 1 1 1 1 1 0 0 -0 -0 -0 -0 -0 -0 -0 -0 -1 -1 -1 -1 -1 -1 -1 -1 -1 -1 -1 -1 -1 -1 -1 -1 -1 -1 -1 -1 -1 -1 -1 -1 -1 -1 -0 -0 -0 -0 -0 -1 -1 -1 -1 -1 -1 -1 -1 -1 -1 -1 -1 -1 -1 -1 -1 -1 -1 -1 -1 -1 -1 -0 -0 -0 -0 -0 0 0
2 2 2 2 2 2 2 2 2 2 1 1 1 1 0 0 0 -0 -0 -0 -1 -1 -1 -1 -1 -1 -1 -1 -1 -1 -1 -1 -1 -1 -1 -1 -1 -1 -2 -2 -2 -1 -1 -1 -1 -1 -1 -1 -1 -1 -1 -1 -1 -0 -0 -0 -0 -0 -1 -1 -1 -1 -1 -1 -1 -1 -1 -1 -1 -1 -1 -1 -1 -1 -1 -1 -1 -1 -1 -0 -0 -0 -0 -0 -0 -0
2 2 2 2 2 2 1 1 1 1 1 1 1 0 0 0 -0 -0 -1 -1 -1 -1 -1 -1 -1 -1 -1 -1 -1 -1 -1 -1 -1 -1 -1 -1 -2 -2 -2 -2 -2 -2 -2 -2 -2 -2 -1 -1 -1 -1 -1 -1 -1 -1 -1 -0 -0 -0 -1 -1 -1 -1 -1 -1 -1 -2 -1 -1 -1 -1 -1 -1 -1 -0 -0 -0 -0 -0 -0 -0 -0 -0 -0 -0 -0 -0
1 1 1 1 1 1 1 1 1 1 1 1 1 0 0 -0 -0 -0 -1 -1 -1 -1 -1 -1 -1 -1 -1 -1 -1 -1 -1 -1 -1 -1 -1 -2 -2 -2 -2 -2 -2 -2 -2 -2 -2 -2 -2 -1 -1 -1 -1 -1 -1 -1 -1 -1 -0 -0 -0 -1 -1 -1 -1 -1 -2 -2 -2 -2 -1 -1 -1 -1 -1 -1 -1 -1 -0 -0 -0 -0 -0 -0 -0 -0 -0 -0
0 0 0 0 0 0 0 0 0 0 0 0 0 0 0 -0 -0 -1 -1 -1 -1 -1 -1 -1 -1 -1 -1 -1 -1 -1 -1 -1 -2 -2 -2 -2 -2 -2 -2 -2 -2 -2 -2 -2 -2 -2 -2 -1 -1 -1 -1 -1 -1 -1 -1 -1 -1 -1 -1 -1 -1 -1 -1 -1 -1 -2 -2 -2 -2 -2 -1 -1 -1 -1 -1 -1 -1 -1 -1 -1 -1 -1 -1 -1 -1 -1
-0 -0 -0 -0 -0 -0 -0 0 0 0 0 0 0 0 0 -0 -1 -1 -1 -1 -1 -1 -1 -1 -1 -1 -1 -1 -1 -1 -1 -1 -2 -2 -2 -2 -2 -2 -2 -2 -2 -2 -2 -2 -2 -2 -2 -1 -1 -1 -1 -1 -1 -1 -1 -1 -1 -1 -1 -1 -1 -1 -1 -1 -1 -2 -2 -2 -2 -2 -2 -2 -1 -1 -1 -1 -1 -1 -1 -1 -1 -1 -1 -1 -1 -1
-0 -0 -0 -0 -0 -0 -0 -0 0 0 0 0 0 0 0 -0 -1 -1 -1 -1 -1 -1 -1 -1 -1 -1 -1 -1 -1 -1 -1 -1 -1 -2 -2 -2 -2 -2 -2 -2 -2 -2 -2 -2 -2 -2 -2 -1 -1 -1 -1 -1 -1 -1 -1 -1 -1 -1 -1 -1 -1 -1 -1 -1 -1 -1 -2 -2 -2 -2 -2 -2 -2 -2 -2 -2 -2 -2 -1 -1 -1 -1 -1 -1 -1 -1
-0 -0 -0 -0 -0 -0 -0 -0 -0 -0 0 0 0 0 0 -0 -1 -1 -1 -1 -1 -1 -1 -1 -1 -1 -1 -1 -1 -1 -1 -1 -1 -1 -2 -2 -2 -2 -2 -2 -2 -2 -2 -2 -2 -2 -2 -2 -2 -2 -1 -1 -1 -1 -1 -1 -1 -1 -1 -1 -1 -1 -1 -1 -1 -1 -2 -2 -2 -2 -2 -2 -2 -2 -2 -2 -2 -2 -2 -2 -2 -2 -1 -1 -1 -1
-1 -1 -1 -1 -1 -1 -0 -0 -0 -0 -0 0 0 0 0 -0 -0 -1 -1 -1 -1 -1 -1 -1 -1 -1 -1 -1 -1 -1 -1 -1 -1 -1 -1 -2 -2 -2 -2 -2 -2 -2 -2 -2 -2 -2 -2 -2 -2 -2 -2 -2 -1 -1 -1 -1 -1 -1 -1 -1 -1 -1 -1 -1 -1 -1 -1 -2 -2 -2 -2 -2 -2 -2 -2 -2 -2 -2 -2 -2 -2 -2 -2 -1 -1 -1
-1 -1 -1 -1 -1 -1 -0 -0 -0 -0 -0 0 0 0 0 0 -0 -1 -1 -1 -1 -1 -1 -1 -1 -1 -1 -1 -1 -1 -1 -1 -1 -1 -1 -1 -2 -2 -2 -2 -2 -2 -2 -2 -2 -2 -2 -2 -2 -2 -2 -2 -2 -1 -1 -1 -1 -1 -1 -1 -1 -1 -1 -1 -1 -1 -1 -1 -1 -2 -2 -2 -2 -2 -2 -2 -2 -2 -2 -2 -2 -2 -2 -2 -2 -1
-1 -1 -1 -1 -1 -1 -1 -1 -0 -0 -0 -0 0 0 0 0 -0 -0 -1 -1 -1 -1 -1 -1 -1 -1 -1 -1 -1 -1 -1 -1 -1 -1 -1 -1 -1 -2 -2 -2 -2 -2 -2 -2 -2 -2 -2 -2 -2 -2 -2 -2 -2 -2 -2 -1 -1 -1 -1 -1 -1 -1 -1 -1 -1 -1 -1 -1 -2 -2 -2 -2 -2 -2 -2 -2 -2 -2 -2 -2 -2 -2 -2 -2 -2 -2
-1 -1 -1 -1 -1 -1 -1 -1 -1 -0 -0 -0 -0 -0 0 -0 -0 -0 -1 -1 -1 -1 -1 -1 -1 -1 -1 -1 -1 -1 -1 -1 -1 -1 -1 -1 -1 -1 -2 -2 -2 -2 -2 -2 -2 -2 -2 -2 -2 -2 -2 -2 -2 -2 -2 -2 -1 -1 -1 -1 -1 -1 -1 -1 -1 -1 -1 -1 -2 -2 -2 -2 -2 -2 -2 -2 -2 -2 -2 -2 -2 -2 -2 -2 -2 -2
Height
722 721 722 723 723 721 720 720 721 720 719 718 719 719 718 718 717 717 717 717 717 716 716 716 716 715 715 714 714 714 713 712 712 711 710 710 710 709 709 709 709 709 708 708 708 707 707 707 706 706 706 706 706 706 706 706 707 707 708 708 709 709 709 710 711 712 713 714 715 717 718 719 720 721 723 724 726 727 727 727 728 730 732 734 736 738
720 720 720 721 721 720 718 718 719 719 718 717 717 717 717 716 715 715 715 715 715 714 714 714 714 713 713 712 711 711 710 710 709 709 708 708 708 707 707 706 706 706 706 706 705 705 705 704 704 704 704 704 704 704 704 704 704 705 705 705 706 707 707 708 709 710 711 712 713 714 715 717 718 719 720 722 723 724 725 726 727 728 729 731 733 735
719 719 718 719 719 718 716 716 717 717 716 715 715 715 715 714 714 714 714 713 713 713 712 712 712 711 710 709 709 709 708 708 707 707 706 706 705 705 704 704 704 704 704 703 703 703 703 702 702 702 702 701 701 701 702 702 702 702 703 703 704 704 705 706 707 708 709 710 711 712 713 714 715 717 718 719 721 722 723 724 725 726 728 729 731 733
719 718 716 717 717 717 715 715 715 715 715 714 714 713 713 713 712 712 712 712 711 711 710 710 709 709 708 707 707 706 706 705 705 704 704 704 703 703 703 702 702 701 701 701 701 700 700 700 700 699 699 699 699 699 699 699 700 700 700 700 701 702 702 703 704 705 706 707 708 709 710 712 713 714 715 717 719 720 721 723 724 725 726 727 729 730
717 717 715 716 715 714 713 713 713 713 712 712 712 711 711 711 710 710 710 710 709 709 708 708 708 707 706 705 704 704 704 703 703 702 702 702 701 701 700 700 700 699 699 699 699 698 698 698 698 697 697 697 697 697 697 697 697 698 698 698 699 699 700 701 702 703 704 705 706 707 708 709 710 712 713 715 716 718 719 720 721 723 724 725 727 729
715 715 714 714 713 712 711 711 711 711 710 710 709 709 709 708 708 708 708 707 707 707 706 706 705 704 704 703 702 702 701 701 700 700 700 699 699 699 699 698 698 697 697 697 696 696 696 695 695 695 695 694 694 695 695 695 695 695 696 696 697 697 698 699 699 700 702 703 704 705 706 707 708 709 711 712 714 715 716 718 719 720 721 723 725 727
712 713 713 712 711 710 709 709 709 709 709 708 707 707 706 706 706 705 705 705 704 704 704 703 703 702 701 700 700 699 699 699 698 698 697 697 697 696 696 696 696 695 695 694 694 694 694 693 693 693 693 692 692 692 693 693 693 693 694 694 694 695 696 696 697 698 699 700 701 703 704 705 707 708 709 710 712 713 714 715 716 718 719 721 723 725
710 710 711 710 709 708 707 707 707 707 707 706 705 704 704 704 704 703 703 702 702 701 701 700 700 699 699 698 698 697 697 696 696 695 695 694 694 694 694 694 693 693 693 692 692 692 691 691 691 690 690 690 690 690 690 690 691 691 692 692 692 693 693 694 695 696 697 698 699 700 701 703 704 706 707 708 709 711 712 713 715 716 718 720 722 724
709 708 708 708 708 707 705 704 704 704 705 704 703 703 702 702 701 701 701 700 699 699 699 698 697 696 696 695 695 695 694 694 694 693 693 692 692 691 691 691 691 690 690 690 690 689 689 689 688 688 688 688 688 688 688 688 688 689 689 689 690 690 691 692 693 694 694 695 696 697 699 700 701 703 704 706 707 708 710 711 713 714 716 718 720 722
707 706 705 705 705 704 704 702 701 702 703 702 701 700 700 699 699 699 698 697 697 697 696 695 694 694 693 693 693 693 692 691 691 691 690 690 690 689 689 689 689 688 688 688 688 687 687 686 686 686 685 685 685 685 685 686 686 686 687 687 688 688 689 689 690 691 692 693 694 695 696 697 699 700 701 703 704 706 707 709 710 712 714 716 717 719
704 704 703 702 701 701 701 699 699 699 700 699 699 698 698 697 697 697 696 694 694 694 694 693 692 691 691 690 690 690 690 689 689 688 688 688 688 688 687 687 687 686 686 686 685 685 685 684 684 684 683 683 683 683 683 683 684 684 684 685 685 686 686 687 688 689 689 690 691 692 694 695 696 698 699 701 702 704 705 706 708 709 711 713 715 716
701 700 700 699 698 698 697 697 696 697 697 697 697 696 695 694 694 694 693 692 691 691 691 690 690 689 689 689 688 688 688 687 687 686 686 686 686 686 685 685 685 684 684 684 683 683 682 682 682 681 681 681 680 680 680 681 681 681 682 682 683 684 684 684 685 686 687 688 689 690 691 692 694 695 697 699 700 702 703 704 706 708 709 711 713 714
698 698 697 696 695 694 694 694 694 694 694 694 694 693 691 691 691 691 691 689 689 689 689 688 687 687 687 687 686 686 685 685 684 684 684 684 684 684 684 683 683 682 682 682 681 680 680 680 679 679 679 678 678 678 678 678 678 679 679 680 680 681 682 682 683 683 684 685 686 687 689 690 691 693 694 696 698 699 701 702 704 705 707 709 710 712
695 694 694 693 692 691 691 691 691 691 690 690 689 689 688 688 689 689 688 687 686 686 687 686 685 684 684 684 684 684 684 683 683 682 682 682 682 682 682 681 681 680 680 680 679 678 678 678 677 677 676 676 676 676 676 676 676 676 677 677 678 679 679 680 680 681 681 682 683 684 685 687 689 690 692 694 695 697 699 700 702 704 705 707 708 710
692 692 691 689 688 688 688 688 688 687 686 686 686 685 685 686 686 686 685 684 684 684 685 684 683 682 682 682 682 682 682 682 681 680 680 680 680 680 680 680 679 679 678 678 677 676 676 676 675 675 674 674 674 674 674 674 674 674 674 675 675 676 677 677 678 679 679 679 680 681 682 684 685 687 689 691 693 694 696 698 699 701 703 704 706 708
689 689 688 686 685 684 684 684 684 684 683 683 683 683 684 683 683 683 683 683 682 683 683 683 681 680 679 679 680 680 680 680 679 679 678 678 678 678 679 678 677 676 676 676 675 674 674 674 674 673 673 672 672 672 672 672 672 672 672 673 673 674 674 675 676 676 677 677 678 679 680 681 683 684 687 688 690 692 694 695 697 699 700 702 704 705
686 685 684 683 682 681 681 681 681 681 680 681 681 681 681 681 681 681 681 681 681 681 680 680 679 679 677 676 677 678 678 678 677 677 676 676 675 676 677 676 675 674 674 674 673 673 673 672 672 671 671 671 670 670 670 670 670 670 670 670 671 671 672 673 673 674 674 675 675 676 677 679 680 682 684 686 687 689 691 692 694 696 698 699 701 703
683 682 681 680 679 679 679 679 679 679 679 679 679 679 679 679 679 679 679 679 679 679 678 678 677 676 675 674 674 675 675 676 675 674 674 674 673 674 674 674 674 673 672 672 671 671 671 670 670 670 669 669 669 669 669 669 669 669 669 669 669 669 670 670 671 672 672 673 673 674 674 676 677 679 681 683 685 686 688 690 692 694 695 697 699 701
680 679 679 678 677 676 676 676 676 677 677 677 677 677 677 677 677 677 677 677 676 676 676 675 674 673 673 672 672 672 674 674 673 673 673 672 672 672 673 673 672 671 670 670 669 669 669 669 668 668 668 668 668 668 667 667 667 667 667 667 667 667 668 668 669 669 670 670 671 671 672 673 675 676 678 680 682 684 685 687 689 691 693 695 697 699
678 677 676 676 675 675 674 674 674 674 675 675 675 675 675 675 675 675 674 674 674 674 673 673 672 671 671 670 670 671 672 672 672 671 671 670 670 670 671 671 670 669 669 668 668 668 668 667 667 666 666 666 666 666 666 666 665 665 665 665 665 665 666 666 667 668 668 669 669 670 670 671 672 673 675 677 679 681 683 685 687 689 690 692 694 697
675 674 674 674 674 673 672 671 671 672 672 673 673 673 673 673 673 673 672 672 672 671 671 670 669 669 669 669 669 669 670 671 670 670 669 669 669 668 669 669 669 668 667 666 666 666 666 665 665 665 664 664 664 664 664 664 664 664 664 664 664 664 664 664 665 666 666 667 668 668 669 669 670 671 673 674 676 678 680 682 684 686 688 690 692 694
673 672 671 672 671 670 669 669 669 670 670 670 671 670 670 670 670 670 669 669 669 669 668 668 667 667 667 668 668 668 669 669 669 669 668 668 667 666 667 667 667 666 665 664 664 664 664 664 663 663 663 663 663 663 663 663 662 662 662 662 662 662 662 663 663 664 664 665 666 667 668 668 669 670 671 673 674 676 678 680 682 684 686 688 690 692
671 670 669 669 669 668 667 667 667 667 668 668 668 667 667 667 667 667 667 667 667 666 666 666 666 666 666 666 666 666 667 667 667 667 667 666 665 664 665 665 665 664 663 663 663 663 663 662 662 661 661 661 661 661 661 661 661 661 661 660 660 660 661 661 661 662 662 663 664 665 666 667 668 669 670 671 673 674 676 678 679 681 684 685 688 690
668 667 666 666 666 665 665 665 664 664 664 664 664 664 664 664 664 665 665 665 665 665 665 665 665 665 664 664 665 665 665 665 666 666 666 664 663 663 663 664 663 662 661 661 661 661 661 661 660 660 660 659 659 659 659 659 659 659 659 659 659 659 659 659 659 660 660 661 662 664 665 666 666 667 669 670 671 673 674 676 678 679 681 684 685 688
664 664 663 663 662 662 662 662 662 662 662 661 661 661 661 662 662 663 663 664 664 664 664 664 663 663 662 663 663 662 662 663 664 664 664 663 661 661 661 662 662 661 660 660 660 660 660 659 659 659 658 658 658 658 658 658 658 658 658 657 657 657 657 657 657 658 658 659 660 661 663 664 665 666 667 668 669 671 672 674 675 677 679 681 683 685
662 661 660 660 660 660 660 660 660 659 659 659 658 658 659 659 660 661 661 661 661 662 662 662 661 660 660 660 660 660 660 660 661 661 661 661 660 659 659 660 660 660 659 659 659 659 659 658 657 657 657 656 656 656 656 656 656 656 656 656 655 655 655 655 656 656 656 657 658 659 661 662 663 664 666 667 668 669 671 672 674 675 677 679 681 683
659 659 658 658 657 657 657 657 657 657 657 656 656 656 656 657 658 658 658 658 658 659 659 659 658 657 657 657 657 657 657 658 658 659 659 659 659 658 657 658 659 659 658 657 657 657 657 657 656 655 655 654 654 654 654 654 654 654 654 654 654 654 654 654 654 654 655 655 656 657 659 660 661 663 664 665 666 668 669 671 672 674 676 677 679 681
656 656 655 655 655 654 654 654 654 654 654 654 654 654 654 654 654 654 653 654 655 656 656 656 655 655 654 654 654 654 655 655 656 656 657 658 657 656 655 656 657 657 657 656 656 656 656 655 654 654 654 653 653 652 652 652 652 652 652 652 652 652 652 652 653 653 653 654 654 655 656 658 659 660 662 663 665 666 668 669 671 673 674 676 677 679
653 653 652 652 651 651 651 651 651 651 651 651 651 652 652 651 650 650 649 651 652 653 653 652 652 652 652 652 652 652 653 653 653 654 655 656 655 654 654 655 655 655 655 655 654 654 654 653 653 652 652 652 651 651 650 651 651 651 651 651 650 650 651 651 651 651 652 652 653 654 655 656 657 658 660 661 663 664 666 668 669 671 673 674 676 677
650 649 649 648 648 648 648 648 648 648 648 648 649 649 649 648 647 646 647 649 650 650 649 649 649 649 650 650 650 650 650 650 651 652 653 654 653 652 652 653 654 654 654 654 654 653 652 651 651 650 650 650 649 649 649 649 649 649 649 649 649 649 649 649 649 649 650 650 651 652 653 654 655 656 658 659 661 662 664 666 668 669 671 672 674 675
647 646 645 644 644 644 644 644 644 644 644 645 645 646 646 645 645 644 645 646 647 647 647 647 647 647 648 649 649 648 646 647 648 649 650 651 650 649 650 651 651 652 652 653 653 652 650 649 648 648 648 648 648 648 648 648 648 647 647 647 647 647 647 647 648 648 648 649 649 650 651 652 653 654 655 657 659 660 662 664 665 667 669 670 671 672
644 644 643 642 641 641 641 641 641 641 641 641 642 642 642 643 643 643 643 643 644 644 644 644 644 645 645 645 645 644 643 644 645 646 647 648 647 647 648 649 649 649 650 651 651 650 649 647 647 647 647 647 646 646 646 646 646 646 646 646 646 645 645 646 646 646 646 647 647 648 649 649 651 652 653 654 656 657 659 660 662 664 666 667 668 669
642 641 640 639 639 638 638 638 638 638 638 638 638 639 639 639 640 640 640 640 640 641 642 642 642 642 642 642 642 641 641 642 643 644 644 645 645 645 646 647 647 648 648 649 649 649 648 647 646 646 646 645 645 645 645 645 645 645 645 645 645 644 644 644 645 645 645 645 646 646 647 648 649 649 650 651 653 654 655 657 659 661 662 663 664 665
640 639 639 638 637 636 635 635 634 635 635 635 635 635 636 636 637 637 637 637 637 638 638 639 639 639 640 640 639 639 639 639 641 642 642 643 643 643 644 645 645 646 647 647 647 647 647 646 646 645 645 644 644 644 644 644 644 644 644 644 644 644 644 644 644 644 644 644 644 645 645 646 647 647 648 649 649 651 652 654 656 658 659 660 661 662
638 637 637 636 635 634 633 632 632 632 632 632 632 633 633 633 634 634 634 634 634 634 634 635 636 636 637 637 636 636 636 637 638 639 640 640 640 641 642 642 643 644 644 645 645 645 645 644 644 644 644 644 643 643 643 643 643 643 643 643 643 643 643 643 643 643 643 643 644 644 644 645 645 646 646 647 647 649 650 652 654 655 657 658 659 661
635 634 634 633 633 632 631 630 629 629 629 629 629 630 630 631 631 631 632 632 632 632 632 632 632 633 633 634 634 634 634 634 636 637 638 638 638 639 640 640 640 641 642 643 643 643 643 643 643 643 643 642 642 641 641 641 642 642 642 642 642 642 642 643 643 643 643 643 643 643 644 644 644 645 645 646 646 648 649 650 652 654 655 657 658 660
633 631 630 630 630 629 629 628 627 627 627 627 627 627 628 628 628 629 629 629 630 630 630 630 630 630 631 631 631 631 632 633 634 635 635 635 636 636 637 637 638 639 640 640 641 641 641 641 641 641 641 641 640 640 640 640 640 641 641 641 641 641 642 642 642 642 642 642 642 643 643 643 644 644 645 645 646 648 649 650 652 653 654 656 658 659
630 629 628 628 627 627 626 626 625 625 624 624 625 625 625 625 626 626 626 627 627 628 628 628 628 628 628 629 629 629 630 631 632 633 633 633 634 634 635 635 636 637 637 638 639 639 640 640 639 639 639 639 639 639 639 639 639 639 639 640 640 641 641 641 641 641 642 642 642 642 643 643 643 644 644 645 646 647 648 649 651 652 654 655 657 658
628 627 626 625 625 625 624 624 623 623 623 622 622 623 623 623 623 624 624 624 625 625 626 626 626 626 626 626 627 628 629 629 630 631 631 631 632 632 633 634 634 635 635 636 637 637 638 638 638 638 637 637 637 637 638 638 638 638 639 639 639 639 640 640 641 641 641 641 642 642 642 643 643 644 644 645 646 647 648 649 650 651 653 654 656 657
627 626 625 624 624 623 622 622 621 621 621 620 620 621 621 621 621 622 622 622 623 623 624 624 624 624 624 625 625 626 626 627 628 629 629 629 630 630 631 632 632 633 634 634 635 635 636 636 636 636 636 636 636 636 636 636 637 637 637 638 638 638 639 639 640 640 640 641 641 641 642 642 643 643 644 644 645 646 647 648 649 650 652 653 655 656
625 624 624 623 623 622 621 620 620 619 619 619 619 619 619 619 619 620 620 620 621 621 622 623 623 623 623 623 623 624 624 625 625 626 627 628 628 629 629 630 630 631 632 633 633 634 634 634 634 634 634 634 635 635 635 635 635 636 636 636 636 637 637 638 639 639 639 640 640 641 641 642 642 643 643 644 645 645 646 647 649 650 651 652 654 655
624 623 622 622 622 621 620 620 619 619 618 618 617 617 617 617 618 618 618 619 619 619 620 621 621 621 621 621 621 622 622 623 623 624 625 625 626 627 628 628 629 630 630 631 631 632 632 632 633 633 633 633 634 634 634 634 634 634 635 635 635 636 636 637 637 638 639 639 639 640 640 641 641 642 643 644 644 645 646 647 648 649 651 652 653 654
623 622 622 621 621 620 619 619 618 618 617 616 616 615 615 615 615 616 616 617 617 617 618 619 619 619 620 620 620 620 620 621 621 622 623 624 624 625 626 626 627 628 629 629 629 630 630 630 631 631 631 632 632 632 632 632 633 633 633 634 634 635 635 635 636 637 637 638 639 639 639 640 641 641 642 643 644 645 646 647 648 649 650 651 652 653
622 621 621 620 620 619 619 618 617 617 616 615 614 614 614 614 614 614 614 614 615 615 616 617 617 618 618 618 618 618 619 619 619 620 621 621 622 623 624 624 625 626 627 627 627 628 628 629 629 629 629 630 630 630 630 631 631 631 632 632 633 633 633 633 634 635 636 637 637 638 639 639 640 641 642 643 643 644 645 646 647 648 649 650 651 652
620 620 619 619 619 618 617 617 616 615 615 614 613 613 612 612 612 612 612 613 613 614 614 615 616 616 616 616 616 617 617 617 618 618 619 619 620 621 622 622 623 624 624 625 625 626 626 626 626 627 627 628 628 628 628 629 629 630 630 631 631 631 631 632 632 633 634 635 636 637 638 639 639 640 641 642 642 643 644 645 646 647 648 649 650 651
619 618 618 617 617 616 616 615 615 614 614 613 612 612 611 611 610 610 610 611 611 612 612 613 614 614 614 614 614 615 615 615 616 616 617 617 618 619 619 620 621 622 622 623 623 624 624 624 625 625 626 626 626 626 626 627 627 628 628 629 629 630 630 631 631 631 632 633 634 635 636 637 639 639 640 641 641 642 643 644 644 645 646 648 648 649
618 617 617 616 615 615 614 614 613 613 612 611 610 610 609 609 609 609 609 609 609 610 611 611 612 612 612 612 612 613 613 614 614 614 615 615 616 617 618 618 619 619 620 621 621 622 622 623 623 624 624 624 624 624 624 625 625 626 626 627 628 628 629 629 629 630 630 631 632 633 635 636 637 638 639 639 640 641 642 642 643 644 645 646 647 647
618 617 616 615 614 614 613 612 612 611 610 609 609 608 608 607 607 607 607 607 607 608 609 609 610 610 610 610 610 611 611 612 612 612 613 614 614 615 616 616 617 618 619 619 619 620 620 621 621 622 622 622 622 622 622 623 624 624 624 625 626 626 627 627 628 628 629 629 630 631 633 634 635 636 637 638 639 640 640 641 642 642 643 644 645 645
617 616 615 614 614 613 612 611 610 610 609 608 607 607 606 606 605 605 605 605 605 606 607 607 608 608 608 609 609 609 609 610 610 611 611 612 612 613 614 615 615 616 617 617 618 618 619 619 619 620 620 621 621 621 621 621 622 622 623 623 624 624 625 625 626 627 627 628 629 629 631 632 633 634 635 637 637 638 639 639 640 640 641 642 643 643
616 615 614 614 613 611 610 609 609 608 608 607 606 605 605 604 604 603 603 603 604 604 604 605 605 606 606 606 607 607 608 608 609 609 609 610 611 611 612 613 614 615 615 616 616 617 617 617 617 617 618 618 619 619 620 620 620 621 621 622 622 623 623 624 624 625 626 626 627 628 629 630 631 632 634 634 635 636 636 637 638 638 639 640 640 641
615 614 614 613 612 611 609 609 608 607 606 605 604 604 603 603 602 601 601 601 602 602 603 603 604 604 604 604 605 605 606 607 607 608 608 609 609 610 610 611 612 613 614 614 614 615 615 615 614 614 614 615 616 617 618 618 619 619 619 620 620 621 621 622 623 624 624 625 626 626 628 629 629 630 631 632 633 634 634 635 635 636 636 637 638 639
Wind_Speed
28 27 25 23 23 24 24 23 23 23 24 24 23 23 22 21 21 20 20 20 21 21 22 22 23 24 25 26 27 28 28 29 30 30 30 30 30 30 31 31 31 31 32 32 32 32 32 32 31 31 31 31 32 32 33 33 34 34 34 35 37 38 39 39 39 38 37 37 35 33 31 30 29 29 28 28 28 27 26 26 27 28 28 28 27 27
28 27 26 24 24 24 25 24 23 22 23 24 23 22 21 21 21 21 20 20 20 21 21 22 23 24 25 26 27 28 29 30 30 30 30 30 30 30 30 31 31 31 32 32 32 32 32 33 32 32 32 32 32 32 32 33 33 34 34 35 36 37 38 39 39 39 38 38 37 36 34 33 32 31 31 30 29 27 26 25 26 27 27 27 27 27
28 28 27 26 25 25 25 25 24 24 24 24 23 22 21 21 22 21 21 21 21 21 21 22 22 23 25 26 26 27 28 29 30 30 30 30 30 30 30 30 31 31 31 32 32 32 32 33 33 33 32 32 32 32 32 33 33 34 34 35 35 36 37 37 38 39 39 39 38 37 36 35 34 34 33 33 31 30 29 28 27 26 26 26 26 26
29 28 28 27 26 26 26 26 26 25 25 24 23 23 22 23 23 23 22 21 21 21 22 22 23 23 24 25 26 26 27 28 29 29 29 29 30 30 30 30 31 31 31 32 32 32 32 32 33 33 33 32 32 32 32 32 33 34 35 35 36 36 37 37 38 38 39 39 38 37 37 36 35 35 35 34 34 33 31 30 29 28 28 27 27 26
29 28 27 26 26 26 27 27 26 25 24 23 22 22 23 23 23 23 22 22 22 22 23 23 24 24 25 25 25 26 26 27 28 28 29 29 29 29 30 30 30 31 31 31 32 32 32 32 32 33 33 33 32 32 32 32 32 33 34 36 36 37 37 37 38 38 39 39 38 37 37 36 36 35 35 35 35 34 33 32 31 30 29 28 28 27
30 28 27 26 25 25 25 24 23 21 20 20 21 21 21 22 22 22 22 22 23 23 24 24 25 25 25 26 26 26 27 27 28 28 28 29 29 29 29 30 30 31 31 31 32 32 32 32 32 32 33 33 33 32 33 32 32 32 34 35 36 36 37 37 37 38 38 39 38 38 37 37 37 36 36 36 35 34 34 33 32 30 30 29 29 29
30 29 27 26 25 23 22 21 20 20 19 19 19 19 20 20 20 20 21 22 23 24 25 25 26 26 26 27 27 27 27 27 27 28 28 28 28 28 29 29 30 30 31 31 32 32 32 32 32 32 33 33 33 33 33 33 33 33 34 34 35 36 36 37 37 38 38 38 37 37 37 37 37 37 37 36 36 36 35 35 33 32 30 30 30 30
28 28 26 24 23 21 20 20 21 21 20 19 18 17 18 18 19 19 20 21 22 23 24 24 25 26 26 26 26 26 26 26 26 26 25 25 26 26 26 27 28 29 30 30 31 32 32 32 32 32 32 33 33 33 33 33 33 33 34 34 34 35 36 36 37 38 38 38 37 37 37 37 36 36 36 35 35 36 36 35 34 33 32 31 31 31
26 26 25 25 23 21 21 21 22 21 20 19 18 18 18 18 19 20 21 21 21 22 22 23 24 25 25 25 25 25 24 24 24 24 24 23 23 23 24 24 25 26 27 28 29 30 31 31 32 32 32 32 33 33 34 34 34 34 34 34 34 34 35 36 37 38 38 38 38 37 37 36 36 35 35 34 34 34 34 34 34 33 33 32 32 31
27 26 25 26 25 23 21 21 23 23 21 19 19 19 19 19 20 21 21 22 22 21 21 22 22 23 23 23 23 23 23 23 23 23 23 23 23 23 23 23 24 24 26 27 28 29 30 30 31 31 32 32 32 33 34 34 34 34 34 34 34 33 34 34 36 38 38 39 38 38 37 36 35 34 34 33 33 32 32 32 32 33 33 32 32 31
26 26 25 24 24 24 23 23 22 21 20 19 19 19 20 19 19 20 20 22 23 22 22 22 22 21 21 21 21 20 21 21 22 22 22 22 23 23 23 23 24 25 26 27 28 28 29 30 30 31 31 32 32 32 33 33 34 34 34 34 34 33 33 33 34 36 38 39 39 38 37 36 35 34 34 33 33 32 32 31 31 31 32 32 32 31
24 24 23 23 23 22 23 23 21 20 20 19 18 18 19 21 21 21 20 21 22 23 23 22 22 21 20 20 19 19 19 19 20 20 20 20 20 20 21 22 22 23 24 25 26 27 28 29 29 30 31 31 31 32 32 33 33 34 34 34 34 34 33 33 33 35 37 39 39 39 38 37 36 36 35 35 35 34 33 32 31 31 31 32 32 32
24 23 22 22 22 21 21 21 20 20 19 18 17 16 18 20 21 21 21 22 23 23 22 22 22 22 21 20 19 18 18 18 18 18 18 18 18 18 18 19 20 20 21 21 22 23 24 25 26 28 29 29 30 31 31 32 33 33 34 34 34 34 34 33 33 33 35 37 38 39 39 38 37 37 37 37 37 36 34 33 32 32 31 31 31 31
22 22 20 20 19 20 20 19 18 17 19 20 20 21 22 22 21 20 20 21 22 22 21 20 20 21 21 20 19 18 17 17 17 18 18 18 18 18 17 18 18 19 19 19 20 21 21 21 22 23 25 26 27 29 30 31 32 33 33 34 34 34 34 33 33 32 33 35 36 38 38 38 38 38 38 38 38 38 36 34 33 33 32 32 31 31
20 18 15 14 15 18 19 19 18 19 21 22 23 23 23 21 20 19 18 18 18 19 18 18 19 20 20 20 19 18 18 17 17 17 18 19 19 18 17 18 18 19 19 19 19 20 19 19 20 20 21 22 24 25 27 28 30 31 32 33 33 33 34 34 33 33 32 33 34 36 37 38 38 38 38 38 38 38 36 35 35 34 33 32 31 31
20 17 12 11 14 18 20 20 20 20 21 22 22 21 20 19 19 19 18 17 16 16 15 14 14 15 17 19 19 18 18 18 17 18 18 19 19 19 18 17 18 19 19 19 19 19 19 18 19 19 20 21 22 23 24 26 27 29 30 31 32 33 33 33 33 33 32 32 33 34 36 36 37 37 37 37 37 37 36 36 35 34 34 32 32 31
20 18 16 14 15 18 21 21 21 20 20 19 19 19 18 18 18 18 18 17 16 14 13 11 7 5 9 15 17 17 18 18 18 18 18 19 19 18 17 17 17 18 19 19 19 19 18 18 18 19 19 20 20 21 22 23 25 26 28 29 30 31 31 32 32 31 31 31 32 34 35 36 36 36 36 37 37 36 36 35 35 34 33 32 32 31
19 19 18 17 17 19 21 21 20 20 19 17 17 17 18 18 18 18 18 17 15 14 13 12 9 5 3 7 12 16 16 17 17 17 17 17 18 17 16 16 17 18 18 19 19 18 18 18 18 19 19 19 20 20 21 22 23 24 25 27 28 29 30 30 30 29 28 28 29 32 34 36 37 37 37 37 36 36 35 35 34 33 33 32 32 31
18 19 19 18 19 20 21 21 20 19 18 17 17 17 17 18 18 17 17 17 17 16 15 13 12 12 10 11 14 15 15 15 16 16 15 16 16 16 15 15 16 17 18 18 18 18 18 18 19 19 19 20 20 20 21 21 22 23 24 25 26 27 29 30 30 29 27 26 26 28 32 36 38 38 38 37 37 36 35 34 33 33 32 31 31 31
17 19 19 19 19 20 20 21 20 20 19 19 18 18 17 17 17 17 16 17 18 18 18 16 15 15 16 17 17 16 14 14 14 14 14 14 15 15 14 14 15 16 17 18 18 18 18 18 19 19 19 20 20 21 21 21 22 23 24 25 26 27 28 30 30 30 28 26 25 25 28 33 36 38 38 37 37 36 35 34 33 32 31 31 31 31
18 18 18 18 18 17 18 20 20 21 21 20 19 18 17 17 17 17 17 17 18 18 18 17 17 18 18 17 16 15 14 14 13 13 12 13 14 15 14 14 15 16 17 18 18 18 17 18 18 18 19 19 20 20 21 21 22 23 24 25 26 27 29 29 30 30 29 28 26 24 24 27 31 34 35 35 35 35 34 34 33 32 31 30 30 31
24 22 21 19 18 18 19 20 21 21 21 20 20 19 19 18 17 17 18 18 18 18 18 18 19 19 19 17 16 15 14 14 14 13 11 10 12 14 14 14 15 16 17 18 17 17 17 17 18 18 19 19 19 20 20 21 22 22 23 24 25 27 28 29 30 31 30 30 28 25 23 23 25 28 31 32 32 33 33 32 32 31 31 30 30 31
28 28 27 26 23 21 21 21 21 22 22 22 22 22 21 21 20 20 19 19 18 18 18 19 19 19 18 17 16 15 14 14 14 14 12 7 9 14 15 14 14 15 16 17 16 16 16 16 17 17 18 18 19 20 20 21 22 22 23 24 24 26 27 29 30 31 32 32 31 29 26 23 22 24 26 28 30 30 31 31 31 31 31 30 31 32
30 30 29 28 27 26 24 23 22 22 22 23 24 25 25 25 25 24 22 21 20 18 17 17 16 16 16 16 16 16 16 15 15 14 13 10 12 15 16 15 14 15 16 16 15 14 15 15 16 17 17 18 19 20 20 21 22 22 23 23 24 24 26 27 29 31 32 33 32 31 29 27 25 24 24 25 27 28 29 30 30 31 31 31 31 32
30 29 29 29 29 28 27 25 24 23 23 24 25 26 27 26 26 25 24 22 20 17 16 15 13 13 14 15 15 15 16 16 15 15 14 13 15 17 18 16 15 15 15 15 14 14 14 15 15 16 17 18 19 19 20 21 22 22 23 23 23 24 24 26 27 29 31 32 33 33 32 30 28 26 25 25 25 26 27 28 29 30 30 31 31 32
31 31 31 30 30 29 28 27 26 25 24 25 25 26 25 24 23 22 21 20 19 17 15 12 10 12 15 15 14 15 16 16 17 17 16 14 14 16 18 17 16 15 15 15 14 14 14 14 15 16 16 17 18 19 20 21 21 22 23 23 23 23 24 24 26 27 29 30 32 33 33 32 31 29 28 27 26 26 26 27 27 28 28 29 30 31
33 33 33 32 32 31 30 29 28 27 26 26 26 25 24 22 21 19 19 19 19 17 14 9 7 10 13 13 13 15 16 16 17 18 18 15 13 14 16 17 16 15 15 15 14 14 14 14 15 15 16 17 18 18 19 20 21 22 22 23 23 23 23 24 25 26 27 28 30 31 32 33 33 32 31 30 29 28 28 27 27 27 27 27 28 29
32 33 34 34 34 34 33 32 31 30 30 28 27 26 24 23 20 18 19 20 20 18 15 10 8 7 7 8 12 16 16 16 16 17 17 15 13 13 16 16 15 15 14 14 14 14 14 15 16 16 16 17 18 18 19 19 20 21 21 22 22 23 23 24 24 25 26 27 29 30 31 32 33 33 33 32 32 31 30 29 29 28 28 27 28 30
28 30 32 33 34 34 34 33 32 32 31 31 30 28 27 25 22 21 22 21 19 17 15 13 11 9 7 11 14 15 15 16 16 17 17 14 13 14 17 15 14 14 13 12 12 13 14 15 16 17 17 18 18 18 18 18 18 19 20 21 21 22 22 23 24 25 26 27 28 29 30 31 32 32 33 33 33 33 32 32 31 30 29 29 30 33
24 26 28 30 31 32 33 33 33 32 32 31 31 30 29 27 26 24 24 21 18 16 15 15 14 13 11 10 8 8 11 15 16 16 16 14 13 14 16 15 14 14 12 9 7 7 10 13 15 16 17 17 17 17 17 17 17 18 19 20 20 21 21 22 23 24 25 26 27 28 29 30 31 32 32 33 34 34 34 34 33 32 31 32 34 36
23 23 23 25 27 28 29 30 31 31 30 30 30 30 29 28 27 26 24 22 20 18 17 16 15 15 13 6 3 3 4 12 16 17 18 15 14 15 15 14 14 14 13 10 4 1 4 7 10 13 14 15 15 15 16 16 16 17 17 18 19 19 20 20 21 23 24 25 26 27 28 29 30 31 32 33 34 35 36 36 36 35 35 36 36 35
23 23 22 21 22 23 24 25 25 26 26 27 28 28 29 28 27 26 25 24 23 21 20 18 17 16 15 11 7 6 5 12 15 16 19 17 16 16 15 14 14 14 14 14 10 5 3 2 5 8 10 11 12 13 14 14 15 15 15 16 16 17 18 18 19 20 22 23 24 25 26 27 29 30 32 34 35 36 37 38 38 38 37 36 33 29
23 23 22 21 21 20 21 21 21 22 22 23 24 25 27 27 27 26 25 26 25 24 22 21 19 18 17 16 15 14 14 15 15 16 18 18 16 14 15 14 14 13 14 15 15 12 8 6 6 8 9 9 10 11 12 13 13 14 13 13 14 15 15 16 16 17 19 20 21 22 24 25 26 28 30 32 35 37 38 39 40 38 35 31 26 23
22 22 22 22 21 20 20 20 20 20 20 21 21 22 23 24 25 25 25 25 26 26 25 23 22 20 18 16 16 17 18 18 16 16 18 19 16 14 14 14 14 13 12 13 13 13 12 11 11 9 9 9 10 10 11 11 12 13 13 13 13 13 12 13 14 15 16 17 18 19 21 22 23 24 25 27 30 33 35 36 36 34 30 25 22 19
21 21 22 23 22 20 19 19 19 20 20 20 21 21 21 22 23 24 24 25 26 27 28 27 26 24 22 18 16 15 17 18 18 17 18 19 18 15 14 14 14 14 12 12 11 11 10 12 12 11 9 9 10 10 10 11 11 12 13 13 13 12 11 11 11 12 14 15 16 17 19 20 21 21 21 21 22 25 27 28 29 28 26 22 19 17
20 20 21 21 21 20 18 18 18 19 19 20 20 20 21 21 22 22 23 24 25 27 28 29 29 28 26 24 21 19 19 19 18 18 19 20 20 17 15 15 16 15 13 13 12 10 9 9 11 12 11 8 8 9 10 10 11 11 12 13 13 12 12 11 11 11 12 12 14 15 16 18 19 19 18 17 17 18 20 21 22 23 23 21 19 17
19 19 19 20 19 18 17 17 17 17 18 19 20 20 21 21 22 22 22 24 25 26 27 28 29 29 28 27 26 24 22 20 18 18 20 21 21 19 17 16 16 16 15 14 13 12 10 8 8 9 10 8 7 8 9 10 10 11 12 12 12 12 12 12 11 11 11 11 12 13 13 14 15 15 16 16 16 16 17 18 19 20 21 21 20 19
19 19 19 19 18 17 17 17 17 17 17 18 19 20 21 22 23 23 23 24 24 25 25 26 27 28 29 29 28 27 25 22 20 19 20 22 22 21 19 18 17 17 17 16 15 14 12 7 5 5 4 7 10 11 10 10 10 11 11 12 12 12 12 12 12 12 12 12 12 12 12 12 12 13 14 15 15 16 17 18 19 19 20 21 21 21
19 19 19 19 19 18 17 17 17 17 18 18 20 21 22 22 23 24 24 24 24 25 25 25 26 26 28 29 29 29 27 25 22 21 21 22 23 22 21 19 18 17 17 17 16 16 14 10 7 5 3 5 8 11 12 11 11 11 11 11 12 12 13 13 13 13 13 13 13 12 12 12 12 12 12 13 14 15 16 16 17 19 20 20 21 22
18 18 19 19 19 18 18 18 18 18 17 17 19 20 21 21 21 22 23 23 23 24 24 25 25 25 26 27 27 28 28 27 25 24 23 23 23 23 21 19 18 17 17 17 17 16 15 14 13 12 10 8 7 8 10 11 11 11 11 10 10 11 13 13 13 13 13 14 14 14 13 13 13 12 12 13 14 15 15 15 16 17 18 19 19 21
17 17 17 18 19 19 18 18 17 17 16 16 17 18 18 19 18 19 20 20 21 21 22 23 23 23 23 24 24 25 26 27 27 26 25 24 24 24 23 21 19 17 17 17 17 17 16 16 15 14 13 12 11 10 10 11 11 12 12 11 10 11 12 13 14 14 14 14 15 15 14 14 14 14 14 14 14 15 15 15 15 16 16 17 17 18
16 16 16 16 16 17 17 16 16 16 16 16 16 16 17 18 18 17 17 17 18 18 19 19 19 19 19 19 20 22 23 24 25 26 26 26 26 25 24 22 21 19 18 17 16 17 17 17 16 15 14 13 12 11 10 11 12 12 13 12 12 11 11 13 14 15 15 15 15 15 15 15 15 15 15 15 15 15 15 15 16 16 16 17 17 18
15 15 15 16 16 16 16 16 16 16 15 15 15 15 16 17 18 18 17 17 17 17 17 17 17 17 16 16 17 18 20 21 23 24 25 26 26 26 26 24 23 21 19 17 17 17 17 18 17 17 16 16 14 12 11 12 12 13 13 13 13 11 8 11 14 16 16 16 16 16 16 16 16 16 16 16 16 16 16 16 16 17 17 17 18 18
16 17 17 17 17 17 17 17 16 16 15 14 14 14 15 16 17 18 18 17 17 17 16 16 16 16 15 15 15 15 16 18 20 22 24 25 26 27 27 26 25 24 21 19 18 17 17 17 17 18 18 17 16 15 14 13 13 13 13 14 14 13 11 11 13 16 16 17 17 16 16 16 16 16 16 16 16 16 16 16 16 17 17 18 18 18
17 17 17 17 17 16 16 16 16 16 16 16 15 15 14 15 17 18 18 17 17 16 16 16 14 13 12 13 14 14 14 15 17 19 21 23 25 26 27 27 26 25 24 23 21 20 17 16 17 17 18 17 16 16 15 15 14 14 14 14 15 16 15 14 14 16 17 17 17 18 17 16 16 16 15 15 15 16 16 16 17 17 18 18 18 19
16 15 15 15 15 15 16 16 16 16 16 16 17 17 16 16 17 18 18 18 17 16 15 15 14 12 10 11 12 12 12 13 14 16 18 20 23 24 26 27 26 26 25 24 23 23 21 19 17 16 15 15 15 16 16 16 15 15 15 15 15 15 15 15 15 16 18 18 18 19 19 18 17 16 15 15 16 16 16 17 17 18 18 19 19 20
14 14 14 14 14 14 15 15 15 15 15 16 17 17 18 17 17 17 18 17 17 16 15 15 14 13 12 12 12 12 11 12 12 14 16 18 20 22 24 25 26 26 26 25 24 23 23 22 20 17 15 13 12 13 15 16 16 16 15 15 15 15 15 15 15 16 18 18 19 19 20 19 18 16 16 16 16 16 17 18 18 19 19 20 20 20
15 14 14 14 14 14 14 14 14 14 14 15 15 16 17 17 16 16 16 17 16 16 15 14 14 13 13 13 13 13 13 12 12 13 14 15 17 19 20 22 24 25 26 25 24 24 24 23 22 20 18 15 13 12 13 15 16 16 16 16 15 15 15 15 16 16 17 18 19 20 20 20 19 18 17 16 16 16 17 18 19 20 21 21 21 21
15 15 15 15 15 14 14 14 14 14 14 14 15 15 16 16 16 16 16 16 16 16 15 14 13 12 12 12 13 14 14 14 13 13 13 14 15 16 18 19 20 21 22 23 23 23 23 24 25 24 23 20 18 15 14 14 15 15 16 16 16 16 16 16 16 16 16 17 19 20 21 20 20 20 18 17 16 16 17 18 19 20 21 22 22 22
15 15 15 15 15 14 14 14 14 14 14 14 14 14 14 15 15 16 16 16 16 16 15 15 14 13 11 12 13 13 14 13 13 13 13 13 14 15 16 16 17 17 17 17 18 18 18 19 21 24 26 26 23 20 17 15 15 15 15 16 16 16 16 16 16 16 17 17 18 19 21 20 20 20 19 17 17 16 17 18 19 20 21 22 23 23
16 16 16 15 15 15 14 14 14 14 15 15 14 14 14 14 14 14 15 15 15 15 15 15 15 14 12 12 13 13 13 13 13 13 13 13 13 14 15 15 15 14 12 11 10 10 9 9 11 15 21 26 28 26 22 19 17 15 14 15 15 15 15 16 16 16 17 17 18 19 20 20 19 19 18 17 16 16 16 17 18 20 21 22 22 23
Wind_Direction
276 278 279 279 280 280 280 278 277 277 276 275 273 271 270 268 265 262 259 258 257 257 257 258 260 261 263 264 265 266 267 268 269 269 268 267 266 265 264 263 263 263 263 263 262 262 262 262 261 260 259 258 256 254 253 252 252 253 253 250 247 244 243 242 241 240 239 238 238 237 236 234 232 232 232 231 231 228 223 216 212 212 213 215 218 220
276 278 279 279 280 280 280 279 278 277 276 275 273 271 269 267 266 264 262 260 258 257 258 258 259 260 261 262 263 264 266 267 269 270 270 269 268 266 265 264 263 263 263 263 263 263 263 263 262 261 260 258 257 255 254 252 252 253 253 251 248 245 243 242 241 240 239 238 238 237 236 235 234 233 234 235 237 237 234 227 220 215 214 214 216 218
277 278 279 280 280 280 279 280 279 276 275 275 273 271 268 267 266 265 263 262 260 259 259 259 260 261 261 262 263 264 264 266 268 269 270 270 269 268 267 265 264 263 263 263 263 263 263 263 262 262 260 259 257 255 254 253 252 252 252 252 249 246 243 242 241 240 240 240 239 238 238 236 235 235 235 236 237 238 238 236 232 227 223 221 220 220
275 277 278 280 279 278 277 278 278 276 273 272 271 270 267 266 265 264 263 261 261 260 260 260 261 262 263 263 264 264 265 266 268 269 270 271 271 270 269 268 266 265 264 264 263 263 263 263 263 262 260 259 257 256 254 252 251 250 250 250 249 246 243 241 240 240 240 240 240 240 239 239 238 237 236 237 237 237 237 236 235 234 232 230 228 227
273 274 277 279 278 277 276 275 275 273 271 269 267 266 265 264 263 263 262 261 260 259 260 260 261 262 263 264 265 265 266 267 268 269 271 271 272 272 271 270 269 267 266 265 264 264 263 263 263 262 261 259 257 255 254 253 252 251 249 248 247 246 244 241 239 238 238 238 239 239 240 239 239 239 238 237 237 236 236 235 235 234 234 234 233 233
272 273 275 275 275 274 274 272 270 268 267 265 263 262 261 260 260 259 259 258 258 258 259 261 261 262 264 265 266 266 267 268 269 270 270 271 271 271 271 271 270 269 268 267 266 265 264 263 263 262 261 260 258 256 254 253 252 251 249 248 247 246 244 243 240 238 237 237 237 238 238 238 238 238 238 238 237 237 236 236 235 234 234 234 234 234
271 271 272 272 271 270 269 267 265 263 263 263 262 260 258 256 255 254 253 254 255 256 258 261 262 262 263 264 265 266 267 268 269 269 269 270 270 269 269 269 269 268 268 267 267 266 265 264 263 263 262 260 258 256 254 252 251 250 249 248 247 246 244 243 241 239 238 237 236 235 235 234 235 235 235 236 236 236 236 236 235 234 233 232 232 232
269 270 269 268 268 267 265 263 262 262 260 260 259 258 255 254 253 252 252 252 252 254 256 259 261 262 262 263 264 265 266 266 267 267 267 267 267 267 267 267 267 267 267 267 267 266 266 265 264 263 262 261 259 257 255 253 251 249 249 249 248 246 244 242 241 240 239 238 236 234 232 231 231 231 231 231 231 232 232 232 231 230 229 228 227 227
266 267 267 266 265 265 265 263 261 260 258 257 255 253 254 254 255 256 256 254 252 252 252 255 258 260 261 261 261 262 263 263 264 264 264 264 264 264 264 265 265 266 266 266 266 266 266 266 265 264 262 261 260 258 255 253 251 250 249 249 249 248 245 242 240 239 239 238 237 235 233 231 230 229 228 228 228 227 227 226 225 224 224 224 224 225
262 263 265 264 263 261 261 262 262 260 257 254 251 249 250 251 255 258 259 257 255 253 251 252 255 257 259 260 259 259 259 260 260 261 261 262 262 263 263 263 264 265 266 267 267 267 267 266 266 265 263 262 260 258 256 254 252 250 249 249 249 249 247 244 241 239 238 238 238 236 234 232 231 230 230 229 229 228 226 224 222 221 221 222 223 224
259 260 261 261 260 258 257 258 259 258 254 252 249 247 246 245 248 253 256 258 258 256 254 253 253 254 257 258 258 256 256 257 258 259 259 260 261 261 262 262 263 265 266 267 268 268 268 267 266 265 264 262 261 259 257 254 252 250 249 249 249 250 249 247 243 239 237 237 237 236 235 233 232 231 231 231 231 230 229 227 225 223 222 222 223 224
257 258 257 258 257 256 255 254 254 253 251 248 246 246 245 243 243 245 250 254 257 258 257 257 256 255 255 256 257 256 254 253 254 256 258 258 259 260 261 262 263 265 266 267 268 267 267 266 266 265 264 262 261 259 257 255 253 251 249 249 249 249 250 249 246 242 238 236 235 234 233 232 232 231 231 231 231 231 230 228 227 225 224 223 223 223
254 255 255 255 254 253 252 251 251 249 245 241 239 240 243 245 244 243 244 249 253 255 257 258 258 257 255 255 255 254 253 252 252 253 255 257 258 258 259 261 262 263 265 266 266 266 266 265 265 264 263 261 260 259 257 256 254 252 250 249 249 249 249 249 248 246 242 237 234 231 230 230 230 230 230 230 231 230 229 228 227 226 225 224 223 222
253 252 252 251 250 249 248 246 245 244 243 240 240 243 246 247 245 243 243 246 249 251 253 255 257 257 257 255 253 252 252 252 252 253 255 255 256 256 257 259 261 262 263 264 264 264 264 264 264 263 262 261 259 258 256 255 253 252 251 250 249 249 248 248 249 248 246 241 235 231 228 227 227 228 228 229 229 229 228 226 226 225 225 224 223 223
250 249 249 248 248 247 246 245 244 243 245 244 243 244 246 246 244 241 241 244 247 249 250 251 254 255 255 253 251 249 249 250 251 253 255 256 256 255 255 257 259 260 260 260 261 262 262 262 261 262 262 260 259 258 256 254 253 252 251 250 250 249 248 248 248 248 248 244 239 233 229 226 225 226 227 227 228 227 226 224 224 224 223 223 222 223
248 247 246 247 249 249 248 247 245 244 245 246 245 244 243 242 241 239 239 241 244 246 245 247 251 255 255 252 248 245 245 247 249 252 255 256 256 255 253 254 255 257 257 257 258 260 260 259 259 259 260 260 260 258 257 256 254 252 251 250 249 249 248 247 247 248 248 247 243 237 231 228 226 225 226 226 226 225 224 223 222 222 221 221 221 222
249 247 247 249 250 250 250 249 247 246 246 246 245 242 240 239 239 239 239 240 241 242 241 242 244 252 256 255 249 243 241 242 246 249 251 254 256 254 251 249 251 253 254 254 255 257 258 257 257 257 258 258 259 259 258 257 256 254 252 250 249 249 248 247 247 248 249 249 246 240 234 229 227 225 225 225 224 223 222 221 220 220 219 219 220 221
248 247 248 248 250 251 251 250 248 246 246 245 244 243 242 240 239 238 238 238 238 239 240 241 242 243 249 256 254 248 239 236 239 244 247 250 252 253 249 246 247 249 252 254 254 255 255 255 255 255 256 257 257 258 258 258 257 256 253 252 251 249 248 247 247 248 251 253 251 244 237 231 227 225 224 224 223 222 220 219 219 218 218 218 219 220
250 249 248 249 250 251 251 250 248 247 245 244 244 244 243 241 239 238 237 237 237 237 240 242 245 246 248 252 255 253 245 235 235 239 242 246 249 250 247 243 244 247 250 253 254 254 254 254 254 254 254 255 256 257 257 258 257 256 254 254 253 251 248 246 246 247 250 254 255 250 241 233 227 223 222 221 220 219 219 218 217 217 217 217 218 220
255 253 250 249 251 252 252 250 248 246 244 244 243 242 240 240 238 236 235 236 237 238 240 242 245 247 249 252 254 255 249 239 234 235 240 245 248 249 245 241 242 246 249 252 254 254 254 253 254 253 253 254 254 255 255 256 256 256 255 253 252 251 249 246 245 245 247 251 255 254 247 237 228 223 219 217 217 216 216 216 216 216 216 216 217 219
267 261 255 251 249 250 250 249 247 245 243 242 240 238 237 237 236 235 234 235 236 238 239 242 244 246 249 251 254 254 250 241 235 233 239 245 248 248 245 242 242 245 249 252 254 254 252 252 252 252 252 253 253 254 254 255 255 255 254 254 253 251 250 248 246 245 245 247 251 253 251 242 231 224 219 216 214 213 213 213 214 215 215 215 217 219
272 271 268 262 254 248 249 249 248 246 242 238 235 234 235 235 235 235 235 234 235 236 237 240 243 246 249 251 253 253 249 241 235 233 240 247 250 249 247 243 242 245 249 253 254 253 251 250 250 251 252 252 252 253 253 254 254 255 254 254 253 252 251 250 248 245 245 245 246 248 250 246 235 225 219 215 213 212 212 212 213 214 215 215 217 219
266 268 269 268 263 257 254 253 251 247 243 237 233 232 233 233 234 235 236 236 236 238 240 243 246 249 250 251 252 251 247 241 235 234 240 244 251 252 252 246 243 245 249 253 254 254 251 249 249 250 252 252 252 253 253 254 254 254 254 254 254 253 252 250 248 246 245 243 243 244 246 245 239 230 222 217 215 213 213 213 214 214 215 216 217 219
259 261 263 263 262 261 259 256 253 250 244 239 235 234 234 235 236 237 239 240 240 242 244 247 249 251 250 250 249 248 245 239 233 230 233 241 251 255 255 252 249 249 251 253 254 254 253 251 251 251 252 252 252 253 253 254 254 254 254 256 256 255 253 251 249 247 245 243 242 242 242 242 240 236 229 223 218 216 214 214 214 214 215 216 217 219
257 257 258 259 259 259 259 258 256 252 247 242 238 237 237 237 237 239 241 242 242 242 244 246 247 248 247 247 245 243 241 236 229 224 227 241 252 255 256 254 252 252 255 256 256 254 254 253 253 253 252 252 253 253 253 254 254 254 255 257 258 257 255 253 251 248 246 244 242 241 240 240 239 238 235 230 225 221 218 217 215 215 215 216 217 219
258 258 258 259 259 259 260 260 258 255 250 244 239 236 234 233 233 234 235 236 236 236 237 239 240 243 245 245 243 240 239 234 227 223 225 237 250 255 256 254 253 254 257 258 257 255 253 254 254 254 253 253 253 253 254 254 255 255 255 257 258 258 256 254 252 250 248 246 244 242 241 239 239 238 237 234 231 227 223 221 219 218 217 217 219 221
263 262 261 261 261 261 261 261 260 257 253 248 242 236 231 227 225 226 228 230 229 229 229 231 236 242 245 244 242 240 238 233 227 224 224 231 242 252 254 253 252 253 256 258 257 254 253 253 254 255 255 254 254 255 255 255 255 256 255 257 258 258 256 254 252 250 248 247 246 244 242 240 239 238 237 236 234 231 229 226 224 223 221 221 223 225
267 265 263 262 262 262 261 261 261 260 257 253 247 240 231 223 219 221 226 228 227 225 225 226 232 237 239 241 243 241 238 232 227 223 221 224 235 247 250 252 251 250 253 256 258 256 253 253 255 256 256 256 256 256 255 255 256 256 256 257 258 258 256 254 252 250 248 247 246 244 243 241 240 239 238 236 235 234 231 230 228 227 226 227 228 230
269 266 264 262 261 261 261 261 260 260 259 257 254 248 239 227 220 220 226 227 224 222 224 227 231 234 237 243 245 244 239 234 228 222 216 219 230 243 248 248 247 245 247 254 258 259 255 253 254 255 255 256 256 255 255 255 255 256 256 256 257 258 257 255 252 250 248 246 244 243 242 241 240 239 237 236 235 234 233 231 230 229 229 229 231 233
268 265 262 259 258 258 257 257 257 257 257 257 256 254 248 237 227 223 226 225 222 220 223 227 231 233 236 242 245 244 240 235 229 219 210 212 227 241 244 243 241 239 238 244 254 260 257 255 253 251 250 252 253 252 252 252 253 254 255 255 256 257 256 255 253 251 249 246 244 242 240 239 238 237 236 235 234 234 233 232 231 230 230 231 231 232
266 263 259 256 254 253 253 252 252 252 251 251 252 253 251 246 238 230 226 223 221 220 222 226 229 230 229 226 224 228 233 237 230 218 209 210 223 237 239 239 237 235 230 227 227 275 262 260 255 249 245 246 247 248 248 248 248 249 251 253 255 256 256 255 254 251 249 247 244 242 240 238 236 235 233 233 232 232 231 231 230 229 229 229 229 227
267 264 259 255 252 250 248 247 246 246 246 246 246 246 247 247 244 237 229 223 220 221 224 227 230 230 227 225 225 230 236 239 231 219 210 211 223 233 235 234 234 233 228 223 224 235 254 267 262 255 245 242 243 244 244 243 242 243 244 248 251 255 258 257 254 251 249 247 244 243 241 239 236 234 232 230 229 229 229 228 227 226 226 224 221 215
269 267 263 259 254 248 244 241 240 239 239 240 240 240 241 242 243 241 235 228 223 221 222 226 230 231 231 230 232 236 240 240 233 220 210 209 218 228 232 231 231 230 228 225 227 232 240 250 261 263 257 249 245 244 243 241 239 237 236 239 245 252 256 257 254 250 247 245 243 242 241 240 239 237 234 230 228 226 226 225 224 223 220 214 206 198
277 272 269 265 259 251 243 238 235 234 234 234 235 236 237 237 238 238 237 233 228 224 221 223 227 230 232 232 235 238 239 238 232 222 211 207 212 222 228 227 226 225 225 225 227 231 238 244 250 257 259 257 251 246 242 240 237 234 233 234 238 244 249 251 250 246 243 241 240 239 239 240 241 242 239 234 228 224 222 221 220 216 210 202 193 188
280 276 274 271 265 256 245 237 232 231 231 232 232 233 233 234 234 234 234 233 231 228 225 224 226 229 230 232 234 237 237 235 230 221 213 207 209 217 223 225 223 222 221 223 225 228 235 240 242 245 252 256 254 249 243 237 234 231 230 231 234 238 241 243 243 241 240 238 237 238 238 238 239 241 240 235 227 220 216 214 212 208 203 197 192 189
276 274 273 271 266 259 248 239 232 230 229 230 230 230 231 232 232 232 232 232 231 231 230 229 229 230 230 232 234 236 238 236 230 221 214 211 211 214 219 225 225 222 219 221 223 226 230 236 238 239 243 248 252 251 246 238 231 228 228 229 232 235 238 238 238 236 235 234 233 233 234 234 234 236 236 232 224 216 211 208 206 205 204 202 201 198
271 270 270 268 263 256 248 241 236 231 228 228 228 229 229 230 231 232 232 231 231 231 231 231 231 232 232 233 235 237 239 238 233 224 217 214 212 213 217 223 225 221 218 219 222 225 228 232 236 237 238 239 243 247 245 237 228 225 226 228 229 232 235 235 234 232 230 229 228 228 227 226 227 229 230 228 224 218 214 212 210 210 210 211 210 209
271 270 270 267 261 253 246 242 239 235 231 230 229 229 230 231 232 232 233 232 232 232 232 232 233 234 234 235 236 237 238 238 235 228 222 217 213 212 216 221 224 223 221 221 222 225 226 228 231 232 232 236 240 243 242 235 226 223 224 225 226 228 229 230 230 228 226 226 225 224 222 220 220 221 223 222 220 219 218 217 216 216 216 217 218 217
274 274 273 269 263 255 248 243 240 238 235 234 233 232 233 233 233 234 233 233 232 232 233 233 234 235 236 236 236 236 236 236 234 231 226 220 216 214 215 219 223 225 223 223 223 224 225 227 228 228 230 237 240 241 240 235 227 221 220 220 222 224 225 225 225 224 224 223 223 221 219 216 215 214 215 215 214 214 216 217 217 217 217 219 220 222
279 278 277 274 269 262 255 250 247 244 240 237 236 235 233 232 231 231 231 231 232 233 234 235 236 237 237 237 237 236 236 235 233 231 228 223 218 215 215 217 220 223 223 223 223 224 226 229 232 234 237 239 240 239 237 234 228 220 214 213 216 219 220 220 219 220 220 220 220 219 217 214 212 210 209 208 209 209 211 212 213 214 215 216 219 221
278 278 277 276 275 272 267 263 258 253 247 242 237 233 230 227 226 225 225 226 227 229 231 233 234 236 238 238 237 236 236 234 233 231 228 225 222 219 217 218 219 221 223 224 224 224 226 229 232 235 237 239 239 239 238 234 229 221 214 211 212 215 215 215 214 215 216 217 217 217 215 213 211 209 207 206 206 207 208 208 209 210 212 214 216 218
276 276 277 279 281 281 280 277 271 264 255 247 238 231 227 223 221 220 219 220 221 222 224 226 228 232 236 237 237 236 235 233 231 230 229 227 224 222 220 220 221 222 223 224 224 225 226 228 231 233 234 235 237 238 237 235 232 226 220 215 213 213 213 212 211 210 211 213 214 214 213 212 210 208 206 206 206 206 207 207 208 208 210 212 215 218
280 281 283 285 287 288 288 286 281 273 264 253 242 234 228 223 220 218 218 218 218 219 219 220 223 226 231 233 235 234 233 231 230 229 229 228 226 225 224 224 223 223 222 223 225 227 228 229 231 232 233 234 234 234 234 234 233 230 225 218 212 208 207 207 206 206 206 209 210 211 211 210 209 207 206 206 205 205 206 207 208 210 211 212 214 217
282 283 284 285 286 287 287 286 282 276 268 259 249 241 233 226 221 218 218 218 219 218 217 217 218 222 227 230 232 232 231 230 228 227 228 228 228 227 226 226 226 225 224 223 226 229 230 231 231 232 233 233 232 232 233 233 232 230 227 221 214 210 209 205 201 200 203 206 208 209 209 208 207 207 206 206 206 206 206 207 209 211 213 214 215 217
280 280 280 280 280 280 280 279 278 275 271 265 259 252 244 233 224 219 218 218 218 217 215 214 214 217 224 228 229 230 229 227 225 224 224 225 226 227 227 227 226 227 227 227 228 229 230 231 232 233 232 231 230 230 231 231 231 230 228 223 219 217 216 211 203 198 199 202 205 206 206 205 204 205 205 206 207 207 207 208 210 212 213 215 216 218
278 277 276 275 274 274 274 275 274 272 269 265 263 260 253 241 229 221 218 217 217 216 215 212 211 214 222 226 227 227 226 224 222 220 219 220 222 224 226 227 227 227 227 228 229 230 231 232 233 232 231 228 227 227 227 227 228 228 226 223 220 219 219 215 207 199 197 198 201 204 204 203 202 203 205 206 208 209 210 211 212 213 214 216 217 218
286 283 280 277 275 273 273 272 272 269 266 263 262 260 256 246 233 222 218 216 215 214 214 212 213 216 222 225 225 224 224 223 220 218 216 216 217 219 222 225 227 228 228 229 230 231 232 233 233 232 230 228 227 226 225 224 223 224 224 221 219 217 218 217 211 204 198 197 199 200 200 199 199 202 205 207 209 212 214 215 215 216 217 217 218 219
294 291 288 284 280 276 273 271 270 268 266 264 264 263 260 252 237 224 217 214 213 212 212 212 214 218 223 225 225 224 223 223 221 218 215 213 213 214 217 220 223 226 228 229 230 231 233 233 233 232 231 230 231 231 228 224 222 221 221 220 218 216 217 217 214 208 201 199 198 197 196 195 197 200 204 206 209 213 215 216 218 218 219 219 219 220
296 294 291 287 282 277 273 271 270 269 268 267 267 267 265 258 243 227 217 213 211 210 211 212 215 218 222 224 225 224 224 224 223 220 216 212 211 211 213 215 218 221 224 227 229 231 233 234 234 233 231 231 233 234 234 230 225 222 221 220 219 218 218 217 214 210 205 201 198 196 195 195 198 201 202 205 209 212 215 216 218 219 220 220 221 222
295 294 292 289 285 280 277 274 272 270 269 269 269 269 268 263 249 232 219 212 209 209 211 213 215 218 221 223 224 223 223 223 223 222 218 213 208 207 207 209 211 215 219 222 224 226 229 232 233 233 233 232 232 233 235 235 232 228 225 222 221 220 219 218 215 212 207 204 201 198 197 198 199 201 202 204 208 212 215 217 219 220 221 221 222 223
293 292 290 288 287 285 283 280 277 274 272 271 270 271 270 266 254 237 220 212 209 209 211 213 215 218 221 223 224 223 222 221 221 220 219 214 208 205 204 204 205 208 213 217 220 221 222 225 229 232 232 231 231 230 230 232 233 231 228 225 223 221 220 219 217 214 209 206 203 201 200 200 201 202 202 204 208 213 216 218 220 221 221 221 222 224